Probability
20 20 18 16 15 16 19 21 18 10 4 5 9 11 10 10 10 10 10 8 4 1 0 0 0 0 0 0 0 0 0 0 0 0 0 1 1 1
22 22 21 18 18 19 20 21 19 14 9 10 13 12 10 9 10 12 11 9 6 2 0 0 0 0 0 0 0 0 0 0 0 0 0 0 0 0
22 23 22 21 20 21 22 22 20 17 15 16 17 15 13 12 14 15 13 11 9 4 1 1 0 0 0 0 0 0 0 0 0 0 0 0 0 0
22 23 22 22 23 24 23 22 21 20 20 19 18 17 16 16 18 17 13 10 9 6 3 1 0 0 0 0 0 0 0 0 0 0 0 0 0 0
27 27 25 24 25 26 26 24 23 23 23 21 20 19 17 18 19 16 12 11 9 7 5 3 1 0 0 0 0 0 0 0 0 0 0 0 0 0
33 33 30 27 26 26 27 27 26 26 25 24 22 21 20 19 18 13 11 11 10 9 8 7 5 4 2 1 0 0 0 0 0 0 0 0 0 0
34 34 31 27 25 22 20 22 24 25 26 25 23 21 22 22 19 14 10 11 11 12 12 10 9 9 8 5 2 1 0 0 0 0 0 0 0 0
30 32 30 25 21 16 12 11 15 18 21 23 23 23 24 24 23 18 14 13 13 15 13 10 10 11 11 9 5 2 0 0 0 0 0 0 0 0
26 27 26 22 18 15 10 8 9 11 15 19 23 23 23 24 23 20 17 15 15 15 14 12 11 11 11 9 5 1 0 0 0 0 0 0 0 0
22 21 20 18 16 14 13 12 12 14 14 16 19 19 18 19 19 18 17 16 14 14 15 14 13 11 10 8 4 1 0 0 0 0 0 0 0 0
18 17 15 13 11 10 13 16 17 18 17 15 15 13 10 10 11 13 15 15 13 12 13 13 12 11 11 9 7 3 0 0 0 0 0 0 0 0
16 15 13 10 6 6 10 15 17 18 18 18 15 11 8 7 7 8 11 13 13 11 11 10 10 11 12 12 10 5 2 1 1 0 0 0 0 0
14 14 11 7 3 2 6 11 12 14 18 20 17 14 12 11 10 10 11 13 13 11 10 9 8 8 10 10 9 6 4 4 3 2 1 0 0 0
13 10 7 3 1 1 3 5 6 9 16 18 16 14 13 14 14 14 14 13 12 10 9 9 7 6 6 6 6 6 5 5 5 4 3 1 0 0
10 7 3 1 0 1 1 1 3 8 13 15 14 13 13 13 14 14 13 11 8 6 6 7 7 6 5 4 4 5 5 4 4 4 4 3 1 1
7 5 3 2 2 2 1 2 4 8 11 12 13 13 12 12 11 11 10 8 5 4 4 5 6 6 5 4 2 2 3 3 3 3 4 4 3 2
6 5 5 5 5 4 4 5 7 8 9 10 11 12 11 10 8 7 7 6 5 4 4 4 4 5 4 3 2 2 2 2 2 3 3 3 3 3
3 4 6 7 6 7 8 8 9 9 8 8 9 9 9 8 7 6 5 4 4 4 3 3 3 4 3 3 3 3 3 3 3 3 2 2 2 2
1 2 6 7 7 8 10 10 11 10 8 7 7 7 6 6 7 6 4 3 4 4 4 3 3 3 3 3 3 2 3 3 2 1 1 1 1 1
0 1 5 7 8 8 10 11 12 11 8 7 6 6 5 5 7 7 5 3 3 4 4 4 4 3 3 3 2 1 1 1 0 0 0 0 0 0
0 1 4 5 6 7 9 11 12 11 9 7 6 6 5 5 5 6 5 4 3 4 4 5 5 4 3 3 2 0 0 0 0 0 0 1 1 1
1 1 3 4 5 6 8 9 10 10 8 7 5 5 5 5 4 4 4 4 4 4 4 6 6 5 4 3 2 1 0 1 1 1 1 1 2 2
2 2 3 4 5 6 8 8 8 7 6 5 4 4 4 4 4 3 3 4 5 4 4 6 6 6 4 3 3 2 1 2 4 3 1 1 1 2
Wind_Speed
7 8 7 5 5 5 5 5 5 6 5 4 3 2 2 2 1 4 4 3 4 5 5 5 6 6 6 6 6 6 6 6 7 7 7 7 8 8
5 6 6 6 5 5 5 5 5 6 6 3 3 2 3 4 2 4 4 4 6 6 6 6 6 6 6 6 6 6 6 6 6 6 6 6 7 7
6 6 7 6 5 5 5 5 5 5 7 5 3 3 4 5 4 5 5 6 5 8 7 7 7 7 7 7 6 6 6 6 6 7 7 7 7 7
6 6 6 5 6 6 5 5 5 5 6 7 5 4 5 6 5 6 6 5 4 6 8 8 7 7 7 7 7 7 7 6 6 6 7 7 7 8
6 6 6 6 6 5 5 5 5 6 5 6 6 4 4 4 4 6 6 4 6 5 8 9 8 8 8 8 8 7 7 7 7 7 7 7 7 7
5 6 6 6 6 6 5 6 5 5 5 6 6 4 4 4 4 5 5 4 5 5 3 4 7 10 10 10 9 8 8 7 7 7 7 7 7 7
5 5 5 5 4 5 5 4 5 5 5 5 5 4 4 3 4 4 5 4 4 4 4 4 5 5 6 9 9 8 8 8 8 8 8 7 7 7
5 5 5 6 5 4 4 4 5 6 6 6 5 5 5 5 4 5 5 4 5 3 4 5 4 4 4 4 4 6 7 7 8 8 8 8 7 7
4 4 4 2 4 4 4 6 6 6 7 7 7 6 5 4 5 6 5 6 5 4 4 6 4 4 4 2 6 7 7 7 7 7 7 7 7 7
5 4 4 4 3 3 4 4 4 4 5 6 5 5 4 4 4 6 6 6 6 4 4 6 4 4 3 2 5 6 7 7 7 7 7 7 7 7
5 5 5 5 2 3 4 4 4 4 3 3 4 4 4 3 4 5 4 5 5 4 3 4 4 4 4 4 3 6 7 7 7 7 7 7 7 7
4 5 5 4 3 4 5 5 5 5 4 4 5 5 5 4 5 5 5 5 5 4 2 3 4 4 4 3 2 2 3 4 6 7 8 8 8 6
4 4 3 6 5 5 6 6 5 5 5 5 5 4 4 3 4 4 4 5 5 5 3 3 4 4 4 4 4 3 3 3 3 5 7 8 9 8
4 4 2 5 6 7 6 4 3 5 5 4 4 4 3 3 2 2 3 4 4 5 4 4 4 4 5 5 4 3 3 3 3 4 4 5 8 10
3 1 1 4 5 6 6 6 6 6 5 4 4 4 3 2 2 2 3 3 4 4 3 4 5 4 5 5 5 4 4 4 3 4 4 4 5 5
4 3 5 5 5 4 4 6 6 5 4 4 4 4 3 2 3 3 3 2 3 3 2 3 4 5 5 6 5 5 4 4 4 4 4 5 5 5
2 3 3 4 4 4 4 3 4 4 4 4 4 4 3 3 3 2 2 3 4 4 3 2 3 3 5 6 5 5 5 5 4 3 4 5 5 5
3 3 3 4 4 3 3 3 3 3 3 3 3 3 3 3 3 2 2 3 4 4 3 3 2 3 3 3 4 5 5 5 4 4 5 5 5 5
3 3 3 3 3 2 2 2 2 2 2 3 3 3 3 3 3 3 3 3 4 4 3 3 3 3 4 5 3 3 5 5 5 4 4 5 6 5
2 2 2 2 2 2 2 2 1 1 1 2 3 3 3 3 3 3 3 3 3 3 3 3 3 3 5 6 5 5 4 5 5 5 4 4 4 4
1 1 1 2 1 1 1 1 1 1 1 2 2 2 3 3 3 3 3 2 4 4 4 3 2 3 4 4 5 5 4 3 4 5 5 4 5 5
1 1 1 1 1 1 1 1 2 1 1 2 2 2 2 2 3 4 3 3 3 3 4 3 3 3 3 5 5 5 5 4 3 4 5 5 4 5
1 2 2 2 2 2 1 2 2 2 2 2 2 2 3 3 3 3 3 4 4 4 4 4 4 3 4 4 5 4 5 5 4 3 2 2 5 6
Wind_Direction
233 228 236 240 243 246 247 250 261 269 261 237 240 238 249 260 225 249 254 187 207 224 235 239 240 240 244 245 246 243 238 234 235 238 239 242 242 240
237 239 240 243 245 242 239 241 246 259 270 264 254 269 287 275 225 253 249 200 210 214 226 235 239 240 241 241 240 237 234 230 231 233 238 241 244 246
240 237 238 244 241 237 238 244 250 257 263 266 258 246 250 264 258 256 246 243 221 198 211 226 233 238 239 239 236 235 232 231 230 232 237 240 243 246
237 241 244 240 237 244 243 245 246 249 255 265 264 252 245 246 250 257 256 251 253 192 202 218 226 232 235 235 236 235 232 232 234 236 238 239 241 244
236 238 242 243 245 245 248 249 248 245 243 251 255 254 255 247 251 254 258 260 263 217 204 211 218 226 228 230 231 233 232 231 234 237 240 238 239 242
235 237 241 242 242 243 244 247 252 254 248 251 255 250 254 250 252 261 261 252 266 267 252 238 220 220 223 223 223 224 226 228 231 236 238 235 234 237
233 236 238 242 251 254 261 250 248 250 251 250 251 250 252 253 252 259 265 270 262 260 261 250 231 232 221 215 215 220 226 227 229 232 234 234 231 232
238 235 226 217 213 220 246 264 270 260 263 262 257 257 254 255 260 265 269 270 271 254 266 266 259 255 244 235 193 205 221 227 230 232 234 235 233 232
240 239 245 217 222 229 216 225 247 259 265 271 271 273 270 269 265 262 262 266 273 274 266 269 258 259 258 235 179 203 215 223 227 229 231 232 232 231
239 237 239 236 241 252 252 248 249 247 248 253 265 272 279 285 264 263 266 257 256 245 247 271 268 270 280 265 177 192 207 216 221 223 224 225 228 231
235 231 233 230 206 250 248 251 253 252 230 235 266 271 280 276 278 271 262 260 265 261 232 266 278 284 277 256 196 184 201 212 217 219 218 218 223 228
228 221 213 219 197 235 243 244 247 253 258 233 232 235 240 230 225 251 269 269 276 277 258 275 282 287 281 259 250 233 226 211 215 219 218 217 217 231
237 233 198 170 200 228 249 251 251 262 256 252 246 241 239 234 228 232 258 271 278 284 300 281 284 283 280 282 274 262 258 251 240 234 224 219 219 231
249 247 191 176 206 219 233 240 244 253 249 251 255 255 253 253 248 256 259 266 275 286 294 286 282 280 280 282 285 278 273 272 263 255 250 224 224 230
255 299 179 199 217 219 216 218 224 240 248 253 258 261 263 260 256 241 237 237 250 265 276 272 274 279 275 277 283 287 286 277 267 269 263 250 243 235
235 201 199 214 237 255 217 211 228 243 255 258 258 254 254 249 242 251 258 263 275 276 259 264 268 275 274 281 283 283 281 278 271 266 271 264 250 240
262 233 227 222 226 227 231 236 241 235 236 247 256 260 255 254 260 268 270 269 271 277 280 263 261 267 276 281 280 279 280 279 278 277 270 267 257 246
251 235 236 242 248 247 243 242 244 245 251 257 257 259 263 269 271 271 267 267 270 274 281 284 277 269 274 275 266 277 281 283 282 272 266 269 268 264
235 242 242 245 251 254 247 248 258 265 276 268 267 267 263 261 262 264 264 267 273 286 295 291 283 281 282 287 283 260 283 286 283 278 275 275 278 281
256 264 265 266 271 276 275 266 260 248 255 269 272 274 272 267 263 263 265 276 286 291 292 293 295 294 289 292 298 295 264 277 281 278 277 279 287 292
273 283 293 299 293 272 265 269 268 257 263 269 269 275 275 272 273 275 279 275 273 279 285 293 305 279 278 278 281 293 302 274 277 277 275 274 280 277
315 302 303 302 279 260 247 253 264 254 241 251 265 272 279 283 282 283 287 287 281 282 288 296 297 279 275 275 282 292 300 301 277 267 261 260 270 271
302 301 285 262 255 250 246 239 247 251 254 265 269 271 271 272 277 279 283 287 293 296 297 298 299 285 275 273 278 286 294 297 297 293 288 225 217 238